Location: Houston
(29.7630°N, 95.3630°W)
Time: 03:18:50
(UTC-06:00)

ISS - All Passes

Search period start: 21 December 2014 00:00
Search period end: 31 December 2014 00:00
Orbit: 404 x 414 km, 51.6° (Epoch: 21 December)

Date Brightness Start Highest point End Pass type
(mag) Time Alt. Az. Time Alt. Az. Time Alt. Az.
21 Dec - 11:58:19 10° S 12:01:02 24° SE 12:03:45 10° ENE daylight
21 Dec - 13:34:56 10° W 13:37:32 21° NW 13:40:09 10° NNE daylight
21 Dec - 20:07:29 10° NNW 20:10:04 21° NE 20:12:39 10° E night (unlit)
21 Dec - 21:43:56 10° WNW 21:46:34 23° SW 21:49:11 10° S night (unlit)
22 Dec - 11:09:21 10° SE 11:10:24 11° SE 11:11:27 10° ESE daylight
22 Dec - 12:43:30 10° WSW 12:46:39 41° NW 12:49:48 10° NNE daylight
22 Dec - 19:17:40 10° N 19:19:05 12° NE 19:20:30 10° ENE visible
22 Dec - 20:52:41 10° NW 20:55:52 51° SW 20:59:02 10° SSE night (unlit)
23 Dec - 11:52:30 10° SW 11:55:48 86° SE 11:59:07 10° NE daylight
23 Dec - 20:01:49 10° NW 20:05:04 65° NE 20:08:17 10° SE night (unlit)
24 Dec - 11:01:56 10° SSW 11:05:00 35° SE 11:08:03 10° ENE daylight
24 Dec - 12:39:32 10° WNW 12:41:39 16° NW 12:43:45 10° N daylight
24 Dec - 19:11:11 10° NNW 19:14:07 30° NE 19:17:02 10° ESE visible
24 Dec - 20:48:28 10° W 20:50:28 15° SW 20:52:27 10° SSW night (unlit)
25 Dec - 10:12:01 10° SSE 10:14:12 17° SE 10:16:24 10° E daylight
25 Dec - 11:47:39 10° WSW 11:50:34 28° NW 11:53:30 10° NNE daylight
25 Dec - 18:20:53 10° N 18:23:03 16° NE 18:25:12 10° ENE visible
25 Dec - 19:56:42 10° WNW 19:59:40 33° SW 20:02:37 10° SSE visible
26 Dec - 10:56:17 10° SW 10:59:33 61° NW 11:02:50 10° NE daylight
26 Dec - 19:05:29 10° NW 19:08:45 80° SW 19:12:00 10° SE visible
27 Dec - 10:05:20 10° SSW 10:08:34 55° SE 10:11:49 10° NE daylight
27 Dec - 11:44:01 10° WNW 11:45:22 12° NW 11:46:43 10° N daylight
27 Dec - 18:14:35 10° NNW 18:17:44 43° NE 18:20:51 10° ESE visible
27 Dec - 19:53:26 10° WSW 19:53:56 10° SW 19:54:25 10° SW visible
28 Dec - 09:14:53 10° S 09:17:37 24° SE 09:20:21 10° ENE daylight
28 Dec - 10:51:32 10° W 10:54:07 21° NW 10:56:42 10° NNE daylight
28 Dec - 17:23:57 10° NNW 17:26:34 22° NE 17:29:10 10° E daylight
28 Dec - 19:00:25 10° WNW 19:03:02 22° SW 19:05:38 10° S visible
29 Dec - 08:25:34 10° SE 08:26:41 11° SE 08:27:47 10° ESE daylight
29 Dec - 09:59:46 10° WSW 10:02:54 40° NW 10:06:03 10° NNE daylight
29 Dec - 16:33:49 10° N 16:35:16 12° NE 16:36:43 10° ENE daylight
29 Dec - 18:08:51 10° NW 18:12:02 51° SW 18:15:11 10° SSE visible
30 Dec - 09:08:27 10° SW 09:11:45 86° SE 09:15:03 10° NE daylight
30 Dec - 17:17:39 10° NW 17:20:54 66° NE 17:24:08 10° SE daylight
